Location: Arran
(51.9410°N, 101.7372°W)
Time: 03:35:53
(UTC+00:00)

AO-85 - Pass Details

Date: 06 December 2023
Orbit: 516 x 753 km, 64.8° (Epoch: 04 January)

Event Time Altitude Azimuth Distance (km) Brightness Sun altitude
Rises 23:41:31 0° 307° (NW) 2,761 ? -9.4°
Reaches altitude 10° 23:44:28 10° 330° (NNW) 1,906 ? -9.8°
Maximum altitude 23:47:09 16° 9° (N) 1,593 ? -10.2°
Enters shadow 23:49:23 12° 42° (NE) 1,865 ? -10.5°
